Regional Weather Roundup
Issued by NWS

Home | Current Version | Previous Version | Text Only | Print | Product List | Glossary On
Versions: 1 2 3 4 5 6 7 8 9 10 11 12 13 14 15 16 17 18 19 20 21 22 23 24 25 26 27 28 29 30 31 32 33 34 35 36 37 38 39 40 41 42 43 44 45 46 47 48 49 50
000
ASHW40 PHFO 051030
RWRHI

WEATHER ROUNDUP FOR HAWAII
NATIONAL WEATHER SERVICE HONOLULU HI
1200 AM HST SAT SEP 05 2015

THIS IS AN AUTOMATED REPORT THAT HAS NOT BEEN QUALITY CONTROLLED.

NOTE..."FAIR" INDICATES FEW OR NO CLOUDS BELOW 12,000 FEET WITH NO
SIGNIFICANT WEATHER AND/OR OBSTRUCTIONS TO VISIBILITY.

* - THESE SITES REPORT LIMITED FIELDS

HIZ001>004-051100-
KAUAI-NIIHAU-

CITY           SKY/WX    TMP DP  RH WIND       PRES   REMARKS
LIHUE APT      MOCLDY    81  73  78 E10       29.87F
PORT ALLEN*    NOT AVBL
POIPU*           N/A     81 N/A N/A NE6G12      N/A
PRINCEVILLE*     N/A     75 N/A N/A MISG        N/A
KOKOLE POINT*  NOT AVBL
MOLOAA DAIRY*    N/A     79  73  83 E6G12       N/A
WAIMEA HTS*    NOT AVBL
PUU OPAE*      NOT AVBL
PUU LUA*       NOT AVBL
MAKAHA RIDGE*    N/A     72  70  94 S1          N/A
$$

HIZ005>011-051100-
OAHU-

CITY           SKY/WX    TMP DP  RH WIND       PRES   REMARKS
HONOLULU       PTCLDY    80  72  76 CALM      29.86F
KALAELOA       CLEAR     75  71  87 CALM      29.88F
KANEOHE MCB    CLEAR     78  71  79 VRB3      29.85F
WHEELER FIELD  FAIR      72  70  93 W3        29.88F
BELLOWS*       NOT AVBL
KAHUKU*        NOT AVBL
WHEELER*       NOT AVBL
WAIANAE HARBOR NOT AVBL
DILLINGHAM*      N/A     73  72  94 MISG        N/A
KAHUKU TRN*      N/A     75  70  83 E5G12       N/A
KAWAILOA*        N/A     73  68  83 E6G12       N/A
KII*             N/A     81  73  78 E10         N/A
MAKUA RANGE*     N/A     88  81  79 SE3         N/A  HX 105
OAHU FOREST NW NOT AVBL
SCHOFIELD BRK*   N/A     72  70  94 W1          N/A
SCHOFIELD S*   NOT AVBL
WAIANAE VLY*   NOT AVBL
KUAOKALA*      NOT AVBL
HONOULIUULI*   NOT AVBL
MOKUOLOE IS*   NOT AVBL
PALEHUA*       NOT AVBL
WAIAWA PHB*    NOT AVBL
$$

HIZ012>013-051100-
MOLOKAI-

CITY           SKY/WX    TMP DP  RH WIND       PRES   REMARKS
MOLOKAI AIRPT  CLEAR     76  69  79 NE8       29.88F
KALAUPAPA      NOT AVBL
MAKAPULAPAI*   NOT AVBL
MOLOKAI 1*     NOT AVBL
PUU ALII*        N/A     60  60  98 CALM        N/A
$$

HIZ016-051100-
KAHOOLAWE-

CITY           SKY/WX    TMP DP  RH WIND       PRES   REMARKS
KAHOOLAWE*     NOT AVBL
HAKIOAWA*        N/A     74  71  92 MISG        N/A
HONOKANAIA*      N/A     79  72  79 NE5G16    29.81S
KANELOA*         N/A     79  72  78 E9G15     29.95S
KEALIALALO*      N/A     75  72  88 E5G12     29.87F
LUA MAKIKA*    NOT AVBL
$$

HIZ014>015-051100-
LANAI-

CITY           SKY/WX    TMP DP  RH WIND       PRES   REMARKS
LANAI CITY     FAIR      73  68  84 NE13      29.93F
LANAI 1*       NOT AVBL
$$

HIZ017>028-051100-
MAUI-

CITY           SKY/WX    TMP DP  RH WIND       PRES   REMARKS
KAHULUI        CLEAR     78  70  76 NE5       29.88F
KAPALUA-W MAUI NOT AVBL
HANA AIRPORT   CLEAR     73  73 100 S3        29.90S
HANA*            N/A     75 N/A N/A S3          N/A
HALEAKALA SUMM   N/A     46  43  87 N8          N/A
MAALAEA BAY*   NOT AVBL
HALEAKALA*     NOT AVBL
KAUPO GAP*     NOT AVBL
KULA 1*          N/A     56  44  65 E3          N/A
$$

HIZ023>026-051100-
BIG ISLAND OF HAWAII COAST AND LOWER SLOPES-

CITY           SKY/WX    TMP DP  RH WIND       PRES   REMARKS
KAILUA KONA    CLOUDY    81  73  76 E8        29.84F
HILO           MOCLDY    76  72  87 W7        29.86F
HONOKAA*       NOT AVBL
KAWAIHAE MWT*    N/A     82 N/A N/A NE7         N/A
KAWAIHAE*        N/A     82 N/A N/A NE3         N/A
SOUTH POINT*   NOT AVBL
UPOLU AIRPORT*   N/A    N/A N/A N/A E8          N/A
KAMUELA*       NOT AVBL
HAKALAU*         N/A     50  45  84 SW3         N/A
KALOKO-HONOKO*   N/A     79  72  78 E3        29.83F
PALI 2*          N/A     68  63  83 N9          N/A
KEALAKOMO*     NOT AVBL
KAUPULEHU*     NOT AVBL
KAPAPALA*        N/A     71  71  98 NW2         N/A
LOWER KAHUKU*    N/A     66  66 100 CALM        N/A
PUHE CS*         N/A     81  70  69 E3          N/A
PUHO CS*         N/A     74  32  21 NE3G9       N/A
PTA KEAMUKU*     N/A     63  54  72 CALM        N/A
WAIKOLOA*      NOT AVBL
$$

HIZ027>028-051100-
BIG ISLAND OF HAWAII INTERIOR AND SUMMMITS-

CITY           SKY/WX    TMP DP  RH WIND       PRES   REMARKS
BRADSHAW FIELD CLOUDY    54  53  98 SE2       30.23F
MK VISITOR CEN   N/A     50  43  76 VRB3        N/A
MAUNA KEA*       N/A     37  23  56 CALM        N/A
MAUNA LOA*     NOT AVBL
MAUNA LOA 1*   NOT AVBL
PTA KIPUKA*      N/A     55  54  94 E2          N/A
PTA RANGE 17*    N/A     55  54  94 SE1         N/A
PTA WEST*        N/A     57  55  94 SE8         N/A
NENE CABIN*      N/A     55  50  82 NW3         N/A
AHUMOA*        NOT AVBL
PTA PORTABLE*  NOT AVBL
PUU MALI*        N/A     57  43  58 NW2         N/A
$$

HIC003-051100-
NORTHWEST ISLANDS-

CITY           SKY/WX    TMP DP  RH WIND       PRES   REMARKS
MIDWAY ISLAND  CLOUDY    79  73  83 NE14      29.93F
MIDWAY NOS*      N/A     79 N/A N/A MISG      29.92S
FRENCH FRIGATE NOT AVBL
$$

PHZ110>124-180-051100-
BUOY REPORTS

STATION/POSITION TIME  TEMP    WIND        PRES    WAVE   SWELL
                       AIR SEA DIR/SP/G            HT/PER HT/DIR
                 (UTC) (F)     (DEG/KT/KT) (MB)    (FT/S) (FT/D)
BUOY 51001       0954   80 83  110/  8/ 10 1011.0
BUOY 51101       1000   80 83  110/ 10/ 12 1010.6F   9/14  10/ 90
BUOY 51100       NOT AVBL
BUOY 51002       1000   83 84  120/  8/ 12 1010.5F  11/14  11/ 70
BUOY 51003       1000   83 85  120/  6/  8 1010.6F   8/13   8/ 80
BUOY 51004       0903   81 83  360/  8/ 10 1009.6F  11/14  11/ 80
BARBERS PT BUOY  NOT AVBL
WAIMEA BAY BUOY  1000      83                N/A     4/14   2/ 50
KAILUA BAY BUOY  1000      83                N/A     8/14   7/ 90
LANAI BUOY       NOT AVBL
BARBERS PT 2     1000      83                N/A     5/15   3/180
PAUWELA MAUI     1000      82                N/A    10/15   7/ 90
HILO             NOT AVBL
KANEOHE BAY BUOY 1000      82                N/A     6/13   3/ 70
HANALEI KAUAI    1000      84                N/A    10/13   7/ 90
KAHULUI HARBOR   1000   80 83   50/  5/  7 1011.5F
HONOLULU HARBOR  1000   80 83  180/  2/  2 1011.4F
KILO NALU        NOT AVBL
HILO HARBOR      1000   77 81  250/  4/  6 1011.0F
MOKUOLOE         1000   80 85   80/  3/  5 1011.9S
NAWILIWILI       1000   81 84   80/  8/ 10 1011.4F
WHOTS BUOY       NOT AVBL
BUOY 51028       NOT AVBL
$$

......................KEY........................................
  SKY/WX - SKY CONDITIONS/PRESENT WEATHER
  TMP    - TEMPERATURE IN FAHRENHEIT
  DWPT   - DEWPOINT IN FAHRENHEIT
  RH     - RELATIVE HUMIDITY IN PERCENT
  WIND   - DIRECTION AND SPEED /MPH FOR ISLANDS...KTS FOR BUOYS/
  PRES   - MEAN SEA LEVEL PRESSURE IN INCHES OF HG
  VSB    - VISIBILITY IN MILES
  HX     - HEAT INDEX
  WCI    - WIND CHILL INDEX
  VRB    - VARIABLE WIND DIRECTION
  N/A    - NOT AVAILABLE


USA.gov is the U.S. government's official web portal to all federal, state and local government web resources and services.